• In Czech Republic
  • List of Countries
  • For 7 days
  • Water Temperature
  • Satellite Maps
  • Weather Map
  • Weather Widgets
  • user-avatar
    Login

    Hourly Weather Ordino

    Today, 19 January, Friday

    Time Temperature Precipitation Wind Pressure Humidity
    00:00 -1°C° 0 mm 2 mps 633 mmHg 73%
    01:00 -1°C° 0 mm 2 mps 633 mmHg 77%
    02:00 -1°C° 0 mm 2 mps 632 mmHg 80%
    03:00 -1°C° 0 mm 2 mps 632 mmHg 83%
    04:00 -1°C° 0 mm 2 mps 632 mmHg 83%
    05:00 -1°C° 0 mm 2 mps 632 mmHg 84%
    06:00 -2°C° 0 mm 2 mps 631 mmHg 83%
    07:00 -1°C° 0 mm 2 mps 632 mmHg 79%
    08:00 +1°C° 0 mm 2 mps 632 mmHg 76%
    09:00 +2°C° 0 mm 2 mps 632 mmHg 72%
    10:00 +3°C° 0 mm 2 mps 633 mmHg 70%
    11:00 +4°C° 0 mm 2 mps 633 mmHg 67%
    12:00 +4°C° 0 mm 3 mps 634 mmHg 64%
    13:00 +4°C° 0 mm 3 mps 634 mmHg 65%
    14:00 +4°C° 0 mm 3 mps 633 mmHg 66%
    15:00 +3°C° 0 mm 3 mps 633 mmHg 67%
    16:00 +2°C° 0 mm 3 mps 633 mmHg 72%
    17:00 0°C° 0 mm 3 mps 633 mmHg 77%
    18:00 -2°C° 0 mm 3 mps 632 mmHg 81%
    19:00 -2°C° 0 mm 3 mps 633 mmHg 80%
    20:00 -2°C° 0 mm 3 mps 633 mmHg 78%
    21:00 -4°C° 0 mm 3 mps 633 mmHg 76%
    22:00 -4°C° 0 mm 3 mps 633 mmHg 76%
    23:00 -4°C° 0 mm 3 mps 633 mmHg 76%

    Tomorrow, 20 January, Saturday

    Time Temperature Precipitation Wind Pressure Humidity
    00:00 -4°C° 0 mm 3 mps 633 mmHg 76%
    01:00 -4°C° 0 mm 3 mps 633 mmHg 77%
    02:00 -3°C° 0 mm 2 mps 633 mmHg 78%
    03:00 -4°C° 0 mm 2 mps 633 mmHg 78%
    04:00 -4°C° 0 mm 2 mps 633 mmHg 77%
    05:00 -4°C° 0 mm 2 mps 633 mmHg 76%
    06:00 -4°C° 0 mm 2 mps 632 mmHg 75%
    07:00 0°C° 0 mm 1 mps 633 mmHg 72%
    08:00 +1°C° 0 mm 1 mps 633 mmHg 69%
    09:00 +2°C° 0 mm 1 mps 633 mmHg 66%
    10:00 +2°C° 0.2 mm 2 mps 633 mmHg 68%
    11:00 +3°C° 0.2 mm 2 mps 633 mmHg 69%
    12:00 +4°C° 0.2 mm 2 mps 633 mmHg 71%
    13:00 +3°C° 0.7 mm 3 mps 633 mmHg 74%
    14:00 +3°C° 0.7 mm 3 mps 632 mmHg 77%
    15:00 +4°C° 0.7 mm 4 mps 632 mmHg 80%
    16:00 +3°C° 0.6 mm 4 mps 632 mmHg 82%
    17:00 +3°C° 0.6 mm 4 mps 632 mmHg 85%
    18:00 +1°C° 0.6 mm 4 mps 632 mmHg 88%
    19:00 +1°C° 0.2 mm 4 mps 632 mmHg 88%
    20:00 +1°C° 0.2 mm 4 mps 632 mmHg 88%
    21:00 +1°C° 0.2 mm 4 mps 632 mmHg 88%
    22:00 +2°C° 0.6 mm 3 mps 633 mmHg 89%
    23:00 +2°C° 0.6 mm 3 mps 633 mmHg 89%

    Day after tomorrow, 21 January, Sunday

    Time Temperature Precipitation Wind Pressure Humidity
    00:00 +3°C° 0.6 mm 3 mps 633 mmHg 90%
    01:00 +3°C° 0.6 mm 3 mps 634 mmHg 91%
    02:00 +3°C° 0.6 mm 3 mps 634 mmHg 91%
    03:00 +3°C° 0.6 mm 3 mps 634 mmHg 92%
    04:00 +3°C° 0.6 mm 3 mps 634 mmHg 92%
    05:00 +3°C° 0.6 mm 3 mps 634 mmHg 92%
    06:00 +3°C° 0.6 mm 3 mps 634 mmHg 92%
    07:00 +3°C° 0.6 mm 3 mps 635 mmHg 91%
    08:00 +3°C° 0.6 mm 3 mps 635 mmHg 91%
    09:00 +3°C° 0.6 mm 3 mps 636 mmHg 90%
    10:00 +4°C° 0.4 mm 3 mps 636 mmHg 88%
    11:00 +4°C° 0.4 mm 3 mps 636 mmHg 86%
    12:00 +5°C° 0.4 mm 3 mps 637 mmHg 84%
    13:00 +5°C° 0.2 mm 3 mps 637 mmHg 84%
    14:00 +5°C° 0.2 mm 3 mps 637 mmHg 83%
    15:00 +5°C° 0.2 mm 3 mps 637 mmHg 82%
    16:00 +5°C° 0.2 mm 3 mps 637 mmHg 84%
    17:00 +4°C° 0.2 mm 3 mps 637 mmHg 86%
    18:00 +3°C° 0.2 mm 3 mps 637 mmHg 88%
    19:00 +3°C° 0.1 mm 3 mps 637 mmHg 87%
    20:00 +3°C° 0.1 mm 3 mps 637 mmHg 86%
    21:00 +3°C° 0.1 mm 3 mps 638 mmHg 86%
    22:00 +2°C° 0 mm 3 mps 638 mmHg 85%
    23:00 +2°C° 0 mm 3 mps 637 mmHg 84%

    22 January, Monday

    Time Temperature Precipitation Wind Pressure Humidity
    00:00 +2°C° 0 mm 3 mps 637 mmHg 84%
    01:00 +2°C° 0 mm 3 mps 637 mmHg 84%
    02:00 +2°C° 0 mm 3 mps 637 mmHg 84%
    03:00 +1°C° 0 mm 3 mps 637 mmHg 84%
    04:00 +1°C° 0 mm 3 mps 637 mmHg 83%
    05:00 +1°C° 0 mm 3 mps 637 mmHg 83%
    06:00 +1°C° 0 mm 3 mps 637 mmHg 82%
    07:00 +2°C° 0 mm 3 mps 637 mmHg 80%
    08:00 +3°C° 0 mm 3 mps 638 mmHg 78%
    09:00 +4°C° 0 mm 2 mps 638 mmHg 76%
    10:00 +5°C° 0 mm 3 mps 639 mmHg 73%
    11:00 +7°C° 0 mm 3 mps 639 mmHg 70%
    12:00 +8°C° 0 mm 3 mps 639 mmHg 66%
    13:00 +8°C° 0 mm 3 mps 639 mmHg 68%
    14:00 +8°C° 0 mm 3 mps 639 mmHg 69%
    15:00 +8°C° 0 mm 3 mps 639 mmHg 70%
    16:00 +5°C° 0 mm 3 mps 638 mmHg 75%
    17:00 +3°C° 0 mm 3 mps 638 mmHg 79%
    18:00 +2°C° 0 mm 2 mps 637 mmHg 84%
    19:00 +2°C° 0 mm 2 mps 638 mmHg 81%
    20:00 +2°C° 0 mm 2 mps 638 mmHg 77%
    21:00 +2°C° 0 mm 2 mps 638 mmHg 74%
    22:00 +2°C° 0 mm 2 mps 638 mmHg 74%
    23:00 +2°C° 0 mm 2 mps 638 mmHg 75%

    23 January, Tuesday

    Time Temperature Precipitation Wind Pressure Humidity
    00:00 +2°C° 0 mm 2 mps 638 mmHg 76%
    01:00 +2°C° 0 mm 2 mps 638 mmHg 78%
    02:00 +2°C° 0 mm 2 mps 638 mmHg 79%
    03:00 +2°C° 0 mm 2 mps 638 mmHg 81%
    04:00 +2°C° 0 mm 2 mps 638 mmHg 82%
    05:00 +2°C° 0 mm 2 mps 638 mmHg 82%
    06:00 +2°C° 0 mm 2 mps 638 mmHg 83%
    07:00 +3°C° 0 mm 2 mps 638 mmHg 81%
    08:00 +4°C° 0 mm 2 mps 639 mmHg 79%
    09:00 +5°C° 0 mm 2 mps 640 mmHg 77%
    10:00 +6°C° 0 mm 2 mps 640 mmHg 74%
    11:00 +7°C° 0 mm 2 mps 640 mmHg 71%
    12:00 +9°C° 0 mm 2 mps 641 mmHg 67%
    13:00 +8°C° 0 mm 2 mps 640 mmHg 69%
    14:00 +9°C° 0 mm 1 mps 640 mmHg 71%
    15:00 +9°C° 0 mm 1 mps 640 mmHg 73%
    16:00 +7°C° 0 mm 1 mps 640 mmHg 78%
    17:00 +6°C° 0 mm 1 mps 639 mmHg 84%
    18:00 +4°C° 0 mm 1 mps 639 mmHg 89%
    19:00 +4°C° 0 mm 1 mps 639 mmHg 87%
    20:00 +4°C° 0 mm 1 mps 639 mmHg 86%
    21:00 +4°C° 0 mm 1 mps 639 mmHg 84%
    22:00 +3°C° 0 mm 1 mps 639 mmHg 84%
    23:00 +3°C° 0 mm 1 mps 639 mmHg 83%

    24 January, Wednesday

    Time Temperature Precipitation Wind Pressure Humidity
    00:00 +3°C° 0 mm 1 mps 639 mmHg 83%
    01:00 +3°C° 0 mm 1 mps 639 mmHg 83%
    02:00 +3°C° 0 mm 1 mps 638 mmHg 84%
    03:00 +3°C° 0 mm 1 mps 638 mmHg 85%
    04:00 +3°C° 0 mm 1 mps 638 mmHg 84%
    05:00 +3°C° 0 mm 1 mps 638 mmHg 82%
    06:00 +3°C° 0 mm 1 mps 638 mmHg 81%
    07:00 +4°C° 0 mm 1 mps 639 mmHg 77%
    08:00 +5°C° 0 mm 1 mps 639 mmHg 73%
    09:00 +5°C° 0 mm 2 mps 640 mmHg 68%
    10:00 +6°C° 0 mm 2 mps 640 mmHg 65%
    11:00 +7°C° 0 mm 2 mps 640 mmHg 61%
    12:00 +9°C° 0 mm 2 mps 640 mmHg 58%
    13:00 +9°C° 0 mm 2 mps 640 mmHg 58%
    14:00 +8°C° 0 mm 2 mps 639 mmHg 59%
    15:00 +8°C° 0 mm 2 mps 639 mmHg 60%
    16:00 +6°C° 0 mm 2 mps 638 mmHg 66%
    17:00 +4°C° 0 mm 2 mps 638 mmHg 72%
    18:00 +3°C° 0 mm 2 mps 637 mmHg 79%
    19:00 +2°C° 0 mm 2 mps 637 mmHg 78%
    20:00 +2°C° 0 mm 2 mps 637 mmHg 77%
    21:00 +1°C° 0 mm 2 mps 637 mmHg 76%
    22:00 +2°C° 0 mm 1 mps 637 mmHg 76%
    23:00 +2°C° 0 mm 1 mps 637 mmHg 75%
    Show more